Location: Lamoine Observatory
(44.4551°N, 68.3470°W)
Time: 01:08:20
(UTC-05:00)

Daily predictions for brighter satellites

Satellite Brightness Start Highest point End
(mag) Time Altitude Azimuth Time Altitude Azimuth Time Altitude Azimuth
SL-16 R/B 4.3 02:59:36 20° SE 03:01:15 23° E 03:05:35 10° NE
CZ-4B R/B 4.4 03:17:03 10° NNE 03:22:23 40° E 03:27:39 10° SSE
Cosmos 2278 Rocket 4.4 03:36:29 14° S 03:36:29 14° S 03:37:13 10° SSE
USA 229 DEB 4.0 03:44:19 46° NNW 03:46:28 67° NE 03:53:45 10° SE
USA 229 4.0 03:44:23 46° NNW 03:46:34 67° NE 03:53:51 10° SE
In-Cosmos 22 Rocket 4.4 03:47:56 45° SSE 03:49:42 73° E 03:55:31 10° NNE
SL-08 R/B 4.5 03:50:49 10° N 03:57:17 85° E 04:03:41 10° S
CZ-4B DEB 4.1 04:00:11 10° NNE 04:05:46 84° WNW 04:07:10 53° SSW
Gbstr 26 Del rocket 4.1 04:08:00 35° NNE 04:08:00 35° NNE 04:10:44 10° NE
Cosmos 1725 Rocket 3.9 04:01:26 10° N 04:07:40 87° E 04:13:51 10° S
Cosmos 2123 Rocket 3.9 04:01:38 10° S 04:07:51 84° E 04:14:10 10° N
Cosmos 2237 Rocket 3.0 04:11:35 37° NNW 04:11:35 37° NNW 04:15:28 10° NNE
Cosmos 2333 Rocket 3.6 04:18:07 23° NNW 04:18:07 23° NNW 04:20:54 10° N
CZ-2C R/B 3.5 04:15:35 10° SSE 04:20:05 88° WSW 04:20:33 72° NNW
Atlas Centaur 2 4.2 04:19:19 22° SW 04:22:21 27° S 04:29:11 10° SE
Cosmos 1354 Rocket 3.8 04:21:30 47° NNW 04:23:03 83° WSW 04:28:17 10° SSE
Okean O Rocket 3.9 04:19:07 10° N 04:19:38 13° N 04:19:38 13° N
Meteor 2-3 Rocket 3.8 04:20:28 10° S 04:26:14 78° E 04:31:57 10° NNE
Lacrosse 5 rocket 2.1 04:27:35 28° SSW 04:29:48 57° SE 04:34:22 10° NE
Cosmos 2016 Rocket 4.1 04:29:32 45° WNW 04:29:59 46° W 04:35:44 10° SSW
USA 32 4.2 04:25:01 10° S 04:30:12 74° E 04:35:27 10° N
Cosmos 1933 Rocket 3.4 04:29:14 10° SSW 04:33:34 71° W 04:37:58 10° N
Cosmos 1825 3.8 04:30:17 10° SSE 04:33:44 35° E 04:37:12 10° NNE
Cosmos 2219 Rocket 3.9 04:35:57 16° NNW 04:35:57 16° NNW 04:37:56 10° N
COSMO-SKYMED 1 2.7 04:33:45 10° SSE 04:38:04 72° ENE 04:42:25 10° N
DELTA 2 R/B (1) 4.0 04:36:56 36° WSW 04:38:47 50° S 04:44:09 10° ESE
IRS-P2 Rocket 4.5 04:37:55 10° N 04:43:10 66° WNW 04:48:20 10° SSW
SL-16 R/B 2.2 04:41:37 24° SW 04:44:56 57° WNW 04:50:33 10° NNE
Meteor 2-12 Rocket 4.5 04:39:23 10° NNW 04:45:14 53° W 04:51:04 10° SSW
Feng Yun 1-1 Rocket 4.5 04:40:54 10° NNE 04:46:51 82° ESE 04:52:47 10° SSW
Cosmos 2084 Rocket 3.1 04:49:05 53° WNW 04:49:43 64° SW 04:53:32 10° SSE
Cosmos 1603 4.3 04:44:17 10° S 04:49:46 59° ESE 04:55:22 10° NNE
Cosmos 1606 2.9 04:47:54 10° N 04:51:43 69° E 04:55:30 10° SSE
Cosmos 1862 Rocket 4.1 04:53:57 36° W 04:53:57 36° W 04:57:57 10° SSW
Cosmos 1782 2.9 04:50:35 10° N 04:54:34 73° E 04:58:31 10° SSE
Meteor 1-26 Rocket 4.5 04:53:06 13° NNW 04:57:38 43° W 05:02:54 10° SSW
USA 267 4.3 04:52:54 10° E 04:58:44 36° NNE 05:03:25 15° NW
Cosmos 1464 Rocket 4.5 04:55:26 10° N 05:01:41 64° E 05:07:56 10° SSE
CZ-4B R/B 3.9 04:57:49 10° N 05:02:49 33° WNW 05:07:48 10° SW
CZ-3B R/B 3.9 05:04:47 10° SSW 05:07:08 27° SE 05:08:40 10° ENE
Cosmos 2369 Rocket 2.6 05:04:24 10° NNW 05:09:59 64° ENE 05:15:31 10° SE
Abrixas rocket 2.9 05:09:54 30° NW 05:10:49 38° N 05:13:52 10° ENE
Cosmos 1992 Rocket 4.1 05:06:34 10° SW 05:11:41 54° WNW 05:16:49 10° NNE
DEBRIS 3.3 05:15:44 24° WSW 05:16:29 27° SW 05:18:28 10° SSE
NOSS 3-1 (C) 4.1 05:10:03 13° NW 05:17:01 72° WSW 05:25:24 10° SSE
NOAA 6 4.1 05:12:15 10° N 05:17:16 55° WNW 05:22:14 10° SSW
Okean 1-7 2.9 05:15:00 10° NNW 05:19:23 74° W 05:23:44 10° S
Cosmos 2233 Rocket 4.3 05:13:40 10° NNW 05:19:24 42° W 05:25:05 10° SSW
Cosmos 405 Rocket 2.6 05:15:58 10° N 05:19:41 86° E 05:23:25 10° S
Cosmos 1408 2.9 05:20:53 10° SSW 05:24:28 45° WNW 05:28:06 10° N
SKYMED 2 4.2 05:22:14 10° SSW 05:26:12 35° W 05:30:12 10° NNW
ATLAS 2AS CENTAUR R/B 4.3 05:19:45 10° NNW 05:26:58 34° NNE 05:33:47 10° E
Cosmos 1862 3.5 05:24:18 10° S 05:28:15 74° E 05:32:13 10° NNE
MSX 3.9 05:28:42 10° NNE 05:34:32 88° ESE 05:40:18 10° SSW
IDEFIX/ARIANE 42P 2.6 05:29:29 10° N 05:34:34 58° WNW 05:39:38 10° SSW
Ariane Rocket 4.1 05:31:17 10° NNE 05:36:11 48° E 05:41:02 10° S
Okean-O 3.3 05:32:13 10° N 05:36:13 33° WNW 05:40:11 10° SW
Cosmos 2221 Rocket 3.7 05:31:57 10° NNW 05:36:18 53° W 05:40:40 10° S
Meteor 2-6 Rocket 4.4 05:33:08 10° NNW 05:38:49 56° W 05:44:35 10° S
Thor Agena Rocket 3.5 05:33:58 10° S 05:39:03 76° WSW 05:44:08 10° NNW
CZ-2C R/B 2.5 05:33:54 10° N 05:39:04 67° WNW 05:44:07 10° SSW
PAYLOAD A 4.3 05:34:57 10° N 05:39:57 49° WNW 05:45:05 10° SW
NOSS 3-1 (A) 4.1 05:33:20 10° NW 05:40:54 70° WSW 05:49:17 10° SSE
CZ-4 R/B 3.0 05:39:46 10° NNE 05:43:27 39° E 05:47:10 10° SSE
Cosmos 1900 4.4 05:38:55 10° SW 05:44:03 67° NW 05:49:13 10° NNE
Cosmos 968 Rocket 4.1 05:39:54 10° NW 05:44:45 38° WSW 05:49:34 10° S
SMAP 3.9 05:41:22 10° NNE 05:45:58 57° E 05:50:32 10° S
Cosmos 1513 Rocket 4.4 05:40:24 10° NNW 05:46:27 68° W 05:52:25 10° S
Cosmos 1943 Rocket 2.3 05:46:35 10° NNW 05:52:18 86° ENE 05:57:58 10° SSE
Gbstr 26 Del rocket 4.0 05:50:34 10° WNW 05:54:19 29° N 05:57:44 10° ENE
Cosmos 1943 3.2 05:49:15 10° SSW 05:54:56 80° WNW 06:00:40 10° NNE
Cosmos 2237 Rocket 4.1 05:54:40 10° NW 05:55:34 10° NW 05:56:28 10° NNW
CSL-04 Rocket 3.9 05:52:42 10° NNE 05:58:12 83° ESE 06:03:45 10° SSW
SJ-12 4.1 05:55:12 10° N 05:59:12 49° WNW 06:03:09 10° SSW
Cosmos 1869 Rocket 4.4 05:56:06 10° SW 05:59:55 29° WNW 06:03:48 10° NNW
Meteor 1-27 Rocket 3.9 05:55:36 10° NNW 06:01:20 57° W 06:06:56 10° S
Cosmos 2263 4.3 06:00:43 10° NNW 06:06:25 66° WSW 06:12:08 10° SSE
USA 215 3.4 06:02:24 10° NE 06:08:58 86° SE 06:15:31 10° SW
BREEZE-M DEB (TANK) 3.7 06:01:41 10° W 06:16:41 58° NNW 06:20:11 10° ENE
